Regional Weather Roundup
Issued by NWS

Home | Current Version | Previous Version | Graphics & Text | Print | Product List | Glossary On
Versions: 1 2 3 4 5 6 7 8 9 10 11 12 13 14 15 16 17 18 19 20 21 22 23 24 25 26 27 28 29 30 31 32 33 34 35 36 37 38 39 40 41 42 43 44 45 46 47 48 49 50
000
ASUS43 KBIS 290602
RWRND

NORTH DAKOTA REGIONAL WEATHER ROUNDUP
NATIONAL WEATHER SERVICE BISMARCK ND
100 AM CDT FRI MAY 29 2015

NOTE: "FAIR" INDICATES FEW OR NO CLOUDS BELOW 12,000 FEET WITH NO
SIGNIFICANT WEATHER AND/OR OBSTRUCTIONS TO VISIBILITY.


NDZ001>003-009>011-017-290700-
NORTHWEST NORTH DAKOTA

CITY           SKY/WX    TMP DP  RH WIND       PRES   REMARKS
WILLISTON      CLOUDY    50  38  63 N22G31    30.15R
6HR MIN TEMP:  50; 6HR MAX TEMP:  65; 6HR PCP: TRACE;

MINOT          CLOUDY    50  42  74 N24G32    30.08R
MINOT AFB      CLOUDY    50  50  99 N18G28    30.08R
$$

NDZ018>021-031>035-040>046-290700-
SOUTHWEST NORTH DAKOTA

CITY           SKY/WX    TMP DP  RH WIND       PRES   REMARKS
BISMARCK       CLOUDY    61  53  75 N20G29    29.96R
6HR MIN TEMP:  61; 6HR MAX TEMP:  74;

DICKINSON      CLOUDY    56  51  84 N14       30.05R
GARRISON         N/A     52  46  80 N13G24    30.04R
6HR MIN TEMP:  52; 6HR MAX TEMP:  72;

HETTINGER ARPT LGT RAIN  58  54  86 N17G23    30.02R
$$

NDZ004>008-012>016-024-026-027-054-290700-
NORTHEAST NORTH DAKOTA

CITY           SKY/WX    TMP DP  RH WIND       PRES   REMARKS
GRAND FORKS    CLOUDY    60  58  92 N17       29.88R
GRND FRKS AFB  CLOUDY    60  57  87 N12       29.89R
DEVILS LAKE    CLOUDY    55  46  71 N24G31    29.96R
$$

NDZ022-023-025-028>030-036>039-047>053-290700-
SOUTHEAST NORTH DAKOTA

CITY           SKY/WX    TMP DP  RH WIND       PRES   REMARKS
FARGO          RAIN      63  61  93 SW8       29.85R FOG
6HR MIN TEMP:  63; 6HR MAX TEMP:  66; 6HR PCP:  0.25;

JAMESTOWN      MOCLDY    64  60  87 N14       29.88R
$$




USA.gov is the U.S. government's official web portal to all federal, state and local government web resources and services.